[[{"header":{"parameterUnit":"m.s-1","parameterCategory":1,"la1":30.2991,"la2":30.254,"lo1":-89.0895,"lo2":-89.0444,"dy":0.0017,"dx":0.0017,"nx":28,"ny":28,"refTime":"2025-04-30T03:00:00:Z","depth":0,"parameterNumber":2,"parameterNumberName":"U-component_of_WINDS"},"data":[0,0,0,0,0,0,0,0,0,0,0,0,0,0,0,0,0,0,0,0,0,0,0,0,0,0,0,0,0,0,0,0,0,0,0,0,0,0,0,0,0,0,0,0,0,0,0,0,0,0,0,0,0,0,0,0,0,0,-2.9496,-2.9496,0,-2.9504,-2.9504,-2.9504,-2.9459,-2.9458,-2.9457,-2.9456,-2.9464,-2.9466,-2.9467,0,0,0,0,0,0,0,0,0,0,0,0,0,-2.9445,-2.9446,-2.9496,-2.9496,-2.9496,-2.9504,-2.9504,-2.9504,-2.946,-2.9458,-2.9456,-2.9455,-2.9464,-2.9466,-2.9467,0,0,0,0,0,0,0,0,0,0,0,0,0,-2.9461,-2.9447,-2.9496,-2.9475,-2.9473,-2.9504,-2.9504,-2.9504,-2.946,-2.9458,-2.9456,-2.9454,-2.9463,-2.9465,-2.9468,-2.9519,0,0,-2.9474,-2.9475,0,0,0,0,0,0,0,0,-2.9461,-2.9463,-2.9478,-2.9476,-2.9474,-2.9479,-2.9489,-2.9509,-2.946,-2.9465,-2.9456,-2.9453,-2.9471,-2.9472,-2.9478,-2.9519,-2.952,-2.9474,-2.9476,-2.9476,-2.9477,0,0,0,0,0,0,0,-2.9459,-2.9463,-2.9499,-2.9478,-2.9476,-2.9466,-2.9466,-2.9493,-2.9478,-2.9464,-2.9461,-2.9463,-2.9469,-2.9476,-2.9478,-2.952,-2.9474,-2.9476,-2.9477,-2.9478,-2.9605,-2.9607,0,0,0,0,0,0,-2.9461,-2.9462,-2.9499,-2.9499,-2.9463,-2.9468,-2.9469,-2.9479,-2.9478,-2.9476,-2.9464,-2.9461,-2.9473,-2.9475,-2.9478,-2.9538,-2.9476,-2.9478,-2.948,-2.9603,-2.9606,-2.9608,0,0,0,0,0,0,-2.946,-2.9465,-2.9498,-2.948,-2.9483,-2.9471,-2.9484,-2.948,-2.9487,-2.9478,-2.9475,-2.9473,-2.9472,-2.9475,-2.9509,-2.9538,-2.9479,-2.9481,-2.9601,-2.9604,-2.9607,-2.9659,0,0,0,0,0,0,-2.9459,-2.9465,-2.9483,-2.9481,-2.9485,-2.9529,-2.9485,-2.9482,-2.949,-2.9486,-2.9486,-2.9484,-2.947,-2.9506,-2.9511,-2.9539,-2.9483,-2.9598,-2.9602,-2.9606,-2.9654,-2.9663,-2.9671,0,0,0,0,0,-2.9457,-2.9497,-2.9484,-2.9489,-2.9508,-2.9531,-2.9533,-2.9516,-2.9493,-2.9512,-2.9507,-2.9484,-2.9534,-2.951,-2.9516,-2.9545,-2.9596,-2.9601,-2.9606,-2.9651,-2.9661,-2.9671,0,0,0,0,0,0,-2.9503,-2.9497,-2.9482,-2.9523,-2.9528,-2.9523,-2.9546,-2.9528,-2.954,-2.9535,-2.9515,-2.9515,-2.9553,-2.9553,-2.9526,-2.9595,-2.9561,-2.9567,-2.9594,-2.9604,-2.9612,-2.961,-2.9485,0,0,0,0,0,-2.9519,-2.9537,-2.9531,-2.9567,-2.9571,-2.9559,-2.9568,-2.9555,-2.956,-2.9561,-2.9559,-2.9564,-2.9581,-2.9593,-2.9608,-2.9655,-2.9654,-2.9678,-2.9686,-2.9693,-2.9698,-2.9723,-2.9733,-2.9624,-2.9624,-2.9623,0,0,-2.9549,-2.9548,-2.9561,-2.9577,-2.9579,-2.96,-2.956,-2.9584,-2.9599,-2.9565,-2.9597,-2.9596,-2.9601,-2.9642,-2.966,-2.9642,-2.9729,-2.9699,-2.9704,-2.9706,-2.9729,-2.9739,-2.9749,-2.9627,-2.9626,-2.9626,0,0,-2.9616,-2.9617,-2.9648,-2.9651,-2.9656,-2.9648,-2.9655,-2.9654,-2.9652,-2.9684,-2.9659,-2.9678,-2.9708,-2.9712,-2.9719,-2.979,-2.977,-2.9796,-2.9838,-2.9863,-2.9872,-2.9879,-2.9904,-2.9913,-2.9801,-2.9802,-2.9802,0,-2.9654,-2.9683,-2.9666,-2.9691,-2.9699,-2.967,-2.9701,-2.9706,-2.9715,-2.9722,-2.9703,-2.974,-2.9742,-2.9783,-2.9801,-2.9808,-2.9816,-2.9795,-2.9872,-2.9879,-2.9886,-2.9909,-2.9919,-2.9805,-2.9804,-2.9804,-2.9804,0,-2.973,-2.9751,-2.9775,-2.9785,-2.9796,-2.9824,-2.9812,-2.9825,-2.9812,-2.9807,-2.9841,-2.9842,-2.9857,-2.9867,-2.9854,-2.9907,-2.9896,-2.9875,-2.984,-2.99,-2.9921,-2.993,-2.9809,-2.9808,-2.9807,-2.9806,0,0,-2.9823,-2.9824,-2.9833,-2.9838,-2.9841,-2.9858,-2.9886,-2.9901,-2.9912,-2.9921,-2.9944,-2.9971,-2.9952,-2.9959,-2.9947,-2.9969,-3.0026,-2.9945,-2.9945,-2.9959,-3.0084,-3.0099,-3.011,-3.0013,-3.0015,-3.0016,-3.0084,0,-2.9887,-2.9933,-2.992,-2.9967,-2.9986,-2.9961,-2.9985,-2.9991,-2.9987,-3.0004,-3.0,-3.0019,-2.9993,-2.9997,-3.0018,-3.0014,-3.005,-3.001,-3.0034,-3.0035,-3.0032,-3.0121,-3.0137,-3.02,-3.0092,-3.0094,-3.0095,0,-2.9968,-2.9979,-3.0028,-3.003,-3.0037,-3.0059,-3.0073,-3.0089,-3.0096,-3.0092,-3.0101,-3.0085,-3.0114,-3.0081,-3.012,-3.0092,-3.0102,-3.0102,-3.0105,-3.0105,-3.0067,-3.0123,-3.022,-3.0229,-3.0108,-3.0107,-3.0106,0,-3.003,-3.0058,-3.0091,-3.0096,-3.0099,-3.0115,-3.0117,-3.0121,-3.0132,-3.0144,-3.0151,-3.0167,-3.0175,-3.0188,-3.0177,-3.0154,-3.0218,-3.0184,-3.0215,-3.0216,-3.0228,-3.0227,-3.0327,-3.0237,-3.0237,-3.0237,-3.0237,0,-3.0102,-3.0133,-3.0119,-3.0139,-3.0173,-3.0158,-3.0193,-3.0192,-3.0197,-3.0217,-3.0197,-3.0216,-3.0202,-3.022,-3.0213,-3.0246,-3.0251,-3.0248,-3.0245,-3.0249,-3.0249,-3.0253,-3.0248,-3.0239,-3.0239,-3.0238,-3.0238,0,-3.0177,-3.0168,-3.0202,-3.0203,-3.0204,-3.0229,-3.023,-3.0249,-3.0245,-3.0271,-3.0276,-3.0269,-3.0291,-3.0282,-3.0304,-3.0299,-3.0342,-3.0334,-3.0339,-3.0337,-3.0368,-3.0365,-3.0473,-3.0486,-3.039,-3.039,-3.0391,0,-3.0222,-3.0245,-3.0249,-3.0261,-3.0264,-3.0284,-3.0294,-3.0282,-3.0294,-3.0304,-3.0322,-3.0341,-3.0356,-3.0391,-3.0389,-3.0406,-3.0398,-3.0435,-3.04,-3.0403,-3.0397,-3.0395,-3.0397,-3.0441,-3.0442,-3.0443,-3.0443,0,-3.0305,-3.03,-3.0315,-3.0331,-3.0344,-3.0355,-3.0365,-3.0376,-3.0364,-3.0379,-3.04,-3.0411,-3.0435,-3.0454,-3.047,-3.0473,-3.0457,-3.0455,-3.0463,-3.0466,-3.0467,-3.0466,-3.0357,-3.0452,-3.0451,-3.045,-3.045,-3.045,-3.0365,-3.0385,-3.039,-3.0409,-3.0415,-3.0425,-3.0443,-3.0441,-3.0459,-3.0476,-3.0468,-3.0493,-3.0501,-3.052,-3.0526,-3.0545,-3.0531,-3.0543,-3.0546,-3.0548,-3.0552,-3.0466,-3.0549,-3.0548,-3.0548,-3.0548,-3.0548,0,-3.0445,-3.0448,-3.0466,-3.048,-3.0495,-3.0479,-3.0489,-3.0503,-3.0524,-3.0533,-3.0548,-3.0573,-3.0592,-3.0593,-3.0611,-3.0627,-3.062,-3.0632,-3.063,-3.0631,-3.0564,-3.0555,-3.0637,-3.0637,-3.0637,-3.0637,-3.0637,-3.0637,-3.0489,-3.0521,-3.0517,-3.0552,-3.0555,-3.0579,-3.0586,-3.0595,-3.0602,-3.0631,-3.0647,-3.0647,-3.0652,-3.0671,-3.0689,-3.0688,-3.0695,-3.071,-3.0707,-3.0644,-3.0635,-3.0627,-3.0618,-3.0712,-3.0712,-3.0772,-3.0772,-3.0773]},{"header":{"parameterUnit":"m.s-1","parameterCategory":1,"la1":30.2991,"la2":30.254,"lo1":-89.0895,"lo2":-89.0444,"dy":0.0017,"dx":0.0017,"nx":28,"ny":28,"refTime":"2025-04-30T03:00:00:Z","depth":0,"parameterNumber":3,"parameterNumberName":"V-component_of_WINDS"},"data":[0,0,0,0,0,0,0,0,0,0,0,0,0,0,0,0,0,0,0,0,0,0,0,0,0,0,0,0,0,0,0,0,0,0,0,0,0,0,0,0,0,0,0,0,0,0,0,0,0,0,0,0,0,0,0,0,0,0,4.1618,4.1618,0,4.1592,4.1592,4.1592,4.1604,4.1605,4.1605,4.1606,4.1573,4.1572,4.157,0,0,0,0,0,0,0,0,0,0,0,0,0,4.1673,4.1672,4.1618,4.1618,4.1617,4.1592,4.1592,4.1592,4.1604,4.1605,4.1606,4.1606,4.1574,4.1572,4.157,0,0,0,0,0,0,0,0,0,0,0,0,0,4.1648,4.1672,4.1618,4.1621,4.1621,4.1592,4.1592,4.1591,4.1604,4.1605,4.1606,4.1607,4.1575,4.1572,4.157,4.1536,0,0,4.1563,4.1562,0,0,0,0,0,0,0,0,4.165,4.1646,4.1621,4.1621,4.162,4.1603,4.1599,4.1573,4.1604,4.161,4.1606,4.1607,4.1582,4.1579,4.1572,4.1534,4.1533,4.1563,4.1562,4.1561,4.156,0,0,0,0,0,0,0,4.1651,4.1647,4.1608,4.162,4.162,4.1622,4.1619,4.1594,4.159,4.161,4.161,4.1607,4.1582,4.1574,4.1571,4.1532,4.1563,4.1561,4.156,4.1559,4.1466,4.1465,0,0,0,0,0,0,4.1654,4.1649,4.1608,4.1607,4.1638,4.162,4.1617,4.1607,4.1591,4.1589,4.1607,4.1608,4.1577,4.1574,4.157,4.1529,4.1561,4.1559,4.1557,4.1467,4.1466,4.1464,0,0,0,0,0,0,4.1655,4.165,4.1609,4.1628,4.1623,4.1618,4.1606,4.1606,4.1598,4.1589,4.1587,4.16,4.1578,4.1573,4.1545,4.1528,4.1558,4.1555,4.1468,4.1467,4.1465,4.1447,0,0,0,0,0,0,4.1657,4.165,4.1638,4.1628,4.1622,4.1586,4.1605,4.1605,4.1595,4.1597,4.1582,4.158,4.1578,4.1548,4.1543,4.1526,4.1554,4.147,4.1468,4.1466,4.1449,4.1445,4.1442,0,0,0,0,0,4.1658,4.1633,4.1638,4.1633,4.1607,4.1585,4.1582,4.1582,4.1594,4.1581,4.1575,4.158,4.1531,4.1545,4.1539,4.1521,4.1471,4.1468,4.1466,4.1451,4.1446,4.1442,0,0,0,0,0,0,4.1639,4.1631,4.1637,4.1607,4.1597,4.1587,4.1571,4.1577,4.1561,4.1563,4.1563,4.1559,4.153,4.1523,4.1538,4.1487,4.1502,4.1499,4.1493,4.1488,4.1485,4.1487,4.1552,0,0,0,0,0,4.1632,4.1616,4.161,4.1584,4.1579,4.1576,4.1566,4.1568,4.1557,4.1552,4.1543,4.153,4.1512,4.15,4.1482,4.1448,4.1445,4.1433,4.1429,4.1426,4.1423,4.1405,4.1399,4.1456,4.1456,4.1456,0,0,4.1616,4.161,4.1599,4.158,4.1573,4.1555,4.1572,4.1553,4.154,4.1548,4.1522,4.1515,4.15,4.1469,4.1455,4.1462,4.1407,4.1423,4.1421,4.1419,4.1401,4.1396,4.1391,4.1455,4.1455,4.1455,0,0,4.1578,4.1572,4.1551,4.1543,4.1532,4.1531,4.1526,4.1515,4.1512,4.1486,4.1492,4.1476,4.1444,4.1434,4.1424,4.1384,4.1389,4.1378,4.1358,4.1341,4.1336,4.1332,4.1318,4.1313,4.1375,4.1375,4.1375,0,4.1559,4.1535,4.1538,4.1519,4.1511,4.152,4.1498,4.149,4.1472,4.1466,4.1474,4.1436,4.1427,4.1394,4.1384,4.1376,4.137,4.138,4.1337,4.1333,4.1329,4.1315,4.131,4.1374,4.1374,4.1374,4.1374,0,4.1512,4.1495,4.1479,4.1465,4.1454,4.1433,4.1433,4.1421,4.1424,4.1421,4.1394,4.1384,4.1365,4.1357,4.1359,4.1325,4.133,4.1338,4.1353,4.1322,4.131,4.1304,4.1372,4.1373,4.1373,4.1373,0,0,4.146,4.145,4.1444,4.1438,4.1427,4.1414,4.1393,4.1377,4.1367,4.1355,4.1337,4.1311,4.1319,4.1309,4.1309,4.1293,4.1263,4.1303,4.1303,4.1296,4.1224,4.1218,4.1212,4.1266,4.1265,4.1264,4.1226,0,4.1422,4.1388,4.1391,4.1359,4.1343,4.1353,4.1335,4.1325,4.1322,4.1307,4.1303,4.1285,4.1297,4.129,4.1276,4.127,4.1248,4.1272,4.1248,4.1247,4.1252,4.1206,4.1199,4.1163,4.1221,4.122,4.1219,0,4.1372,4.1361,4.1328,4.1321,4.1314,4.1298,4.1284,4.127,4.1259,4.1258,4.1247,4.1251,4.1229,4.1245,4.1214,4.1231,4.1221,4.1217,4.1215,4.1213,4.1231,4.1201,4.1151,4.1146,4.1211,4.1212,4.1212,0,4.1338,4.1315,4.1292,4.1287,4.1277,4.1266,4.1261,4.1252,4.1243,4.1229,4.1223,4.1207,4.1198,4.1184,4.1183,4.1195,4.1152,4.1168,4.1149,4.1149,4.1139,4.114,4.1087,4.1133,4.1133,4.1134,4.1134,0,4.1295,4.1274,4.1277,4.1263,4.124,4.1243,4.1219,4.1216,4.1208,4.1192,4.1198,4.1183,4.1182,4.1166,4.1164,4.1139,4.1135,4.1133,4.1132,4.1132,4.1132,4.1125,4.1127,4.1132,4.1132,4.1133,4.1133,0,4.1252,4.1254,4.123,4.1224,4.1222,4.1205,4.1199,4.1185,4.1183,4.1164,4.1159,4.1155,4.1137,4.1135,4.1112,4.1111,4.1081,4.1083,4.1085,4.1086,4.1067,4.1069,4.1007,4.0999,4.1051,4.1051,4.105,0,4.1225,4.1209,4.1203,4.1194,4.1189,4.1174,4.1165,4.1168,4.1158,4.1146,4.1133,4.1116,4.1102,4.1072,4.1066,4.105,4.1051,4.1031,4.1049,4.1049,4.1051,4.1052,4.105,4.1027,4.1027,4.1026,4.1026,0,4.1175,4.1177,4.1165,4.1153,4.1143,4.1133,4.1124,4.1116,4.1117,4.1105,4.1088,4.1078,4.1057,4.1039,4.1023,4.1016,4.1021,4.1021,4.1016,4.1015,4.1017,4.1016,4.1076,4.1022,4.1022,4.1023,4.1023,4.1023,4.1139,4.1127,4.1121,4.1107,4.1101,4.1092,4.1079,4.1077,4.1063,4.1048,4.105,4.103,4.102,4.0999,4.0992,4.0976,4.0982,4.0974,4.0972,4.097,4.0969,4.102,4.0972,4.0973,4.0973,4.0973,4.0973,0,4.1091,4.1088,4.1075,4.1064,4.1053,4.1061,4.1051,4.1041,4.1025,4.1016,4.1003,4.0983,4.0967,4.096,4.0944,4.0932,4.0934,4.0928,4.0928,4.0927,4.0964,4.097,4.0927,4.0927,4.0927,4.0927,4.0927,4.0927,4.1064,4.1043,4.1044,4.102,4.1017,4.1,4.0994,4.0985,4.0979,4.0957,4.0944,4.0941,4.0933,4.0916,4.0901,4.09,4.0893,4.0886,4.0885,4.0919,4.0924,4.0929,4.0934,4.0884,4.0884,4.0849,4.0849,4.0849]}]]